Location: Newark
(27.9675°N, 86.8869°E)
Time: 15:52:09
(UTC+00:00)

Vanguard 3 - Pass Details

Date: 25 October 2019
Orbit: 507 x 3263 km, 33.4° (Epoch: 20 November)

Event Time Altitude Azimuth Distance (km) Brightness Sun altitude
Rises 17:27:37 0° 275° (W) 3,186 - -72.8°
Reaches altitude 10° 17:30:29 10° 283° (WNW) 2,011 - -73.1°
Maximum altitude 17:34:31 38° 354° (N) 811 - -73.4°
Drops below altitude 10° 17:37:58 10° 65° (ENE) 1,711 - -73.6°
Sets 17:40:12 0° 74° (ENE) 2,636 - -73.8°
